Flag for Norway Weather past 2 weeks in Trondheim, Norway

Now
66 °F

Sunny.


Feels Like: 66 °F
Forecast: 53 / 62 °F
Wind: 3 mph from Southwest

Location: Trondheim / Vaernes

Current Time: Jul 3, 2015 at 9:01:17 AM

Latest Report: Jul 3, 2015 at 7:50 AM


Visibility: 10 mi

Pressure: 30.09 "Hg

Humidity: 73%

Dew point: 57 °F

Location of TrondheimLocation

Historic Weather in Trondheim — Graph

°F

Trondheim temperature yesterday

Maximum temperature yesterday: 73 °F (at 3:50 PM)
Minimum temperature yesterday: 57 °F (at 3:50 AM)
Average temperature yesterday: 65 °F

Past Weeks' High & Low Weather Summary

 TemperatureHumidityPressure
High73 °F (Jul 2, 3:50 PM)100% (Jul 1, 3:50 PM)30.24 "Hg (Jul 1, 3:50 PM)
Low43 °F (Jun 20, 3:50 AM)49% (Jun 28, 4:20 PM)29.65 "Hg (Jun 18, 7:20 AM)
Average55 °F78%29.95 "Hg
* Reported Jun 18 7:20 AM — Jul 3 7:50 AM, Trondheim, Weather by CustomWeather, © 2015

Note: Actual official high and low records may vary slightly from our data, if they occured in-between our weather recording intervals... More about our weather records

Advertising

Trondheim weather history for previous 24 hours

 ConditionsComfort  
Time TempWeatherWind HumidityBarometerVisibility
7:50 AM
Fri, Jul 3
66 °FSunny.3 mph73%30.09 "Hg10 mi
7:20 AM66 °FSunny.1 mph78%30.12 "Hg10 mi
6:50 AM64 °FPassing clouds.3 mph88%30.12 "HgN/A
6:20 AM63 °FSunny.3 mph94%30.12 "Hg10 mi
5:50 AM63 °FSunny.2 mph94%30.12 "Hg10 mi
5:20 AM63 °FSunny.1 mph94%30.12 "Hg10 mi
4:50 AM63 °FPassing clouds.3 mph94%30.09 "HgN/A
4:20 AM63 °FPassing clouds.5 mph94%30.09 "HgN/A
3:50 AM63 °FClear.5 mph94%30.09 "Hg10 mi
3:20 AM63 °FClear.5 mph94%30.12 "Hg10 mi
2:50 AM63 °FPassing clouds.3 mph94%30.09 "HgN/A
2:20 AM64 °FClear.3 mph88%30.09 "Hg10 mi
1:50 AM64 °FClear.2 mph88%30.09 "Hg10 mi
1:20 AM64 °FClear.3 mph88%30.09 "Hg10 mi
12:50 AM64 °FClear.1 mph88%30.09 "Hg10 mi
12:20 AM64 °FSunny.1 mph88%30.09 "Hg10 mi
11:50 PM
Thu, Jul 2
66 °FSunny.1 mph78%30.07 "Hg10 mi
11:20 PM68 °FSunny.1 mph73%30.07 "Hg10 mi
10:50 PM68 °FSunny.1 mph78%30.09 "Hg10 mi
10:20 PM68 °FSunny.6 mph73%30.07 "Hg10 mi
9:50 PM70 °FSunny.5 mph78%30.07 "Hg10 mi
9:20 PM70 °FSunny.5 mph73%30.07 "Hg10 mi
8:50 PM72 °FSunny.1 mph69%30.07 "Hg10 mi
8:20 PM72 °FSunny.2 mph73%30.07 "Hg10 mi
7:50 PM70 °FScattered clouds.1 mph69%30.09 "HgN/A
7:20 PM70 °FPassing clouds.3 mph73%30.09 "HgN/A
6:50 PM72 °FSunny.7 mph69%30.09 "Hg10 mi
6:20 PM72 °FSunny.7 mph69%30.09 "Hg10 mi
5:50 PM72 °FSunny.6 mph69%30.09 "Hg10 mi
5:20 PM72 °FSunny.10 mph69%30.09 "Hg10 mi
4:50 PM72 °FSunny.12 mph69%30.09 "Hg10 mi
4:20 PM73 °FSunny.6 mph69%30.09 "Hg10 mi
3:50 PM73 °FPassing clouds.5 mph65%30.12 "HgN/A
3:20 PM72 °FSunny.2 mph69%30.12 "Hg10 mi
2:50 PM68 °FSunny.6 mph73%30.12 "Hg10 mi
2:20 PM70 °FSunny.7 mph69%30.12 "Hg10 mi
1:50 PM68 °FSunny.8 mph73%30.12 "Hg10 mi
1:20 PM66 °FSunny.10 mph78%30.15 "Hg10 mi
12:50 PM66 °FSunny.13 mph78%30.15 "Hg10 mi
12:20 PM64 °FSunny.14 mph83%30.15 "Hg10 mi
11:50 AM64 °FSunny.13 mph83%30.15 "Hg10 mi
11:20 AM64 °FSunny.10 mph78%30.15 "Hg10 mi
10:50 AM64 °FSunny.9 mph83%30.15 "Hg10 mi
10:20 AM64 °FSunny.8 mph83%30.15 "Hg10 mi
9:50 AM63 °FSunny.7 mph83%30.18 "Hg10 mi
9:20 AM63 °FSunny.6 mph83%30.18 "Hg10 mi
Weather by CustomWeather, © 2015

See weather overviewHow to use our weather pages